TimeCDT,TemperatureF,Dew PointF,Humidity,Sea Level PressureIn,VisibilityMPH,Wind Direction,Wind SpeedMPH,Gust SpeedMPH,PrecipitationIn,Events,Conditions,WindDirDegrees,DateUTC
12:58 AM,44.6,26.6,49,29.96,10.0,North,29.9,36.8,N/A,,Clear,360,2014-03-19 05:58:00
1:58 AM,44.1,26.6,50,29.99,10.0,North,27.6,39.1,N/A,,Clear,360,2014-03-19 06:58:00
2:58 AM,43.2,27.9,55,30.05,10.0,North,18.4,27.6,N/A,,Clear,350,2014-03-19 07:58:00
3:58 AM,41.7,27.7,58,30.07,10.0,NW,12.7,-,N/A,,Clear,320,2014-03-19 08:58:00
4:58 AM,40.3,28.2,62,30.09,10.0,WNW,8.1,-,N/A,,Clear,290,2014-03-19 09:58:00
5:58 AM,38.8,28.2,66,30.12,10.0,NW,9.2,-,N/A,,Clear,310,2014-03-19 10:58:00
6:58 AM,38.5,28.6,68,30.17,10.0,WNW,6.9,-,N/A,,Clear,290,2014-03-19 11:58:00
7:58 AM,37.0,28.4,71,30.20,10.0,WNW,8.1,-,N/A,,Clear,300,2014-03-19 12:58:00
8:58 AM,39.7,29.3,66,30.25,10.0,WNW,9.2,-,N/A,,Clear,290,2014-03-19 13:58:00
9:58 AM,45.7,31.1,57,30.26,10.0,North,15.0,-,N/A,,Clear,360,2014-03-19 14:58:00
10:58 AM,49.8,30.0,47,30.29,10.0,NNE,13.8,-,N/A,,Clear,20,2014-03-19 15:58:00
11:58 AM,52.5,27.9,39,30.29,10.0,NNE,11.5,-,N/A,,Clear,20,2014-03-19 16:58:00
12:13 PM,53.6,28.4,38,30.27,10.0,NNE,12.7,18.4,N/A,,Clear,30,2014-03-19 17:13:00
12:58 PM,55.0,25.0,31,30.26,10.0,North,12.7,-,N/A,,Clear,10,2014-03-19 17:58:00
1:50 PM,57.2,24.8,29,30.24,10.0,NNE,12.7,-,N/A,,Clear,20,2014-03-19 18:50:00
1:58 PM,57.7,23.9,27,30.23,10.0,NNE,13.8,-,N/A,,Clear,30,2014-03-19 18:58:00
2:58 PM,59.5,23.7,25,30.21,10.0,North,11.5,18.4,N/A,,Clear,10,2014-03-19 19:58:00
3:58 PM,60.3,24.3,25,30.18,10.0,NNW,11.5,19.6,N/A,,Clear,340,2014-03-19 20:58:00
4:58 PM,60.6,23.4,24,30.17,10.0,NNE,4.6,-,N/A,,Clear,30,2014-03-19 21:58:00
5:58 PM,61.5,24.8,25,30.17,10.0,NNE,8.1,-,N/A,,Clear,20,2014-03-19 22:58:00
6:58 PM,59.4,25.0,27,30.18,10.0,East,4.6,-,N/A,,Clear,80,2014-03-19 23:58:00
7:58 PM,52.0,28.8,41,30.20,10.0,East,5.8,-,N/A,,Clear,100,2014-03-20 00:58:00
8:58 PM,46.9,28.0,48,30.21,10.0,ESE,5.8,-,N/A,,Clear,110,2014-03-20 01:58:00
9:58 PM,42.8,28.2,56,30.21,10.0,SE,8.1,-,N/A,,Clear,130,2014-03-20 02:58:00
10:58 PM,40.1,27.1,60,30.22,10.0,SSE,4.6,-,N/A,,Clear,150,2014-03-20 03:58:00
11:58 PM,37.9,27.5,66,30.21,10.0,SSE,5.8,-,N/A,,Clear,160,2014-03-20 04:58:00